• In Deutschland
  • Länderverzeichnis
  • Für 7 Tage
  • Wassertemperatur
  • Satellitenkarten
  • Wetterkarte
  • Widgets
  • user-avatar
    Anmelden

    Stündliche Wetter Nachiczewan

    Heute, 26 März, Sonntag

    Zeit Temperatur Niederschläge Wind Luftdruck Luftfeuchtigkeit
    00:00 +6°C° 0 mm 0 m/S 685 mmHg 52%
    01:00 +6°C° 0 mm 1 m/S 685 mmHg 52%
    02:00 +6°C° 0 mm 1 m/S 685 mmHg 52%
    03:00 +6°C° 0 mm 1 m/S 685 mmHg 51%
    04:00 +5°C° 0 mm 1 m/S 685 mmHg 51%
    05:00 +5°C° 0 mm 1 m/S 685 mmHg 51%
    06:00 +5°C° 0 mm 1 m/S 685 mmHg 51%
    07:00 +7°C° 0 mm 1 m/S 685 mmHg 46%
    08:00 +9°C° 0 mm 1 m/S 686 mmHg 42%
    09:00 +11°C° 0 mm 1 m/S 686 mmHg 37%
    10:00 +12°C° 0 mm 1 m/S 686 mmHg 35%
    11:00 +13°C° 0 mm 1 m/S 686 mmHg 34%
    12:00 +14°C° 0 mm 1 m/S 685 mmHg 32%
    13:00 +14°C° 0 mm 1 m/S 685 mmHg 32%
    14:00 +15°C° 0 mm 1 m/S 685 mmHg 31%
    15:00 +15°C° 0 mm 1 m/S 685 mmHg 31%
    16:00 +14°C° 0 mm 1 m/S 685 mmHg 34%
    17:00 +14°C° 0 mm 1 m/S 685 mmHg 37%
    18:00 +13°C° 0 mm 1 m/S 685 mmHg 40%
    19:00 +12°C° 0 mm 1 m/S 686 mmHg 42%
    20:00 +10°C° 0 mm 2 m/S 686 mmHg 43%
    21:00 +9°C° 0 mm 2 m/S 687 mmHg 44%
    22:00 +8°C° 0 mm 2 m/S 687 mmHg 45%
    23:00 +8°C° 0 mm 2 m/S 687 mmHg 46%

    Morgen, 27 März, Montag

    Zeit Temperatur Niederschläge Wind Luftdruck Luftfeuchtigkeit
    00:00 +8°C° 0 mm 2 m/S 687 mmHg 47%
    01:00 +8°C° 0 mm 1 m/S 686 mmHg 48%
    02:00 +8°C° 0 mm 1 m/S 686 mmHg 48%
    03:00 +7°C° 0 mm 1 m/S 686 mmHg 48%
    04:00 +7°C° 0 mm 1 m/S 686 mmHg 49%
    05:00 +7°C° 0 mm 1 m/S 686 mmHg 49%
    06:00 +7°C° 0 mm 1 m/S 686 mmHg 49%
    07:00 +8°C° 0 mm 1 m/S 686 mmHg 45%
    08:00 +10°C° 0 mm 1 m/S 686 mmHg 42%
    09:00 +12°C° 0 mm 1 m/S 686 mmHg 38%
    10:00 +14°C° 0 mm 1 m/S 686 mmHg 37%
    11:00 +15°C° 0 mm 1 m/S 686 mmHg 36%
    12:00 +16°C° 0 mm 1 m/S 686 mmHg 35%
    13:00 +16°C° 0 mm 2 m/S 685 mmHg 34%
    14:00 +17°C° 0 mm 2 m/S 685 mmHg 33%
    15:00 +17°C° 0 mm 3 m/S 685 mmHg 32%
    16:00 +16°C° 0 mm 2 m/S 685 mmHg 36%
    17:00 +15°C° 0 mm 2 m/S 685 mmHg 40%
    18:00 +14°C° 0 mm 2 m/S 684 mmHg 44%
    19:00 +13°C° 0 mm 2 m/S 685 mmHg 47%
    20:00 +12°C° 0 mm 2 m/S 685 mmHg 49%
    21:00 +10°C° 0 mm 2 m/S 685 mmHg 51%
    22:00 +10°C° 0 mm 2 m/S 685 mmHg 53%
    23:00 +9°C° 0 mm 2 m/S 685 mmHg 54%

    übermorgen, 28 März, Dienstag

    Zeit Temperatur Niederschläge Wind Luftdruck Luftfeuchtigkeit
    00:00 +9°C° 0 mm 2 m/S 685 mmHg 56%
    01:00 +9°C° 0 mm 2 m/S 685 mmHg 57%
    02:00 +8°C° 0 mm 2 m/S 685 mmHg 57%
    03:00 +8°C° 0 mm 2 m/S 685 mmHg 58%
    04:00 +9°C° 0 mm 1 m/S 685 mmHg 59%
    05:00 +9°C° 0 mm 1 m/S 685 mmHg 60%
    06:00 +8°C° 0 mm 1 m/S 685 mmHg 61%
    07:00 +10°C° 0 mm 1 m/S 685 mmHg 57%
    08:00 +11°C° 0 mm 1 m/S 685 mmHg 53%
    09:00 +13°C° 0 mm 1 m/S 685 mmHg 49%
    10:00 +14°C° 0 mm 2 m/S 685 mmHg 46%
    11:00 +15°C° 0 mm 2 m/S 685 mmHg 43%
    12:00 +17°C° 0 mm 2 m/S 685 mmHg 40%
    13:00 +17°C° 0,1 mm 2 m/S 685 mmHg 38%
    14:00 +18°C° 0,1 mm 2 m/S 685 mmHg 37%
    15:00 +18°C° 0,1 mm 2 m/S 685 mmHg 36%
    16:00 +17°C° 0,1 mm 2 m/S 685 mmHg 40%
    17:00 +16°C° 0,1 mm 2 m/S 685 mmHg 44%
    18:00 +15°C° 0,1 mm 2 m/S 685 mmHg 49%
    19:00 +14°C° 0,1 mm 2 m/S 686 mmHg 51%
    20:00 +13°C° 0,1 mm 2 m/S 686 mmHg 54%
    21:00 +12°C° 0,1 mm 2 m/S 686 mmHg 57%
    22:00 +12°C° 0 mm 1 m/S 686 mmHg 58%
    23:00 +11°C° 0 mm 1 m/S 686 mmHg 60%

    29 März, Mittwoch

    Zeit Temperatur Niederschläge Wind Luftdruck Luftfeuchtigkeit
    00:00 +11°C° 0 mm 1 m/S 686 mmHg 61%
    01:00 +10°C° 0 mm 1 m/S 686 mmHg 62%
    02:00 +10°C° 0 mm 1 m/S 686 mmHg 63%
    03:00 +10°C° 0 mm 1 m/S 686 mmHg 64%
    04:00 +9°C° 0 mm 1 m/S 686 mmHg 65%
    05:00 +9°C° 0 mm 1 m/S 686 mmHg 66%
    06:00 +9°C° 0 mm 1 m/S 686 mmHg 68%
    07:00 +10°C° 0 mm 1 m/S 686 mmHg 62%
    08:00 +12°C° 0 mm 1 m/S 687 mmHg 57%
    09:00 +14°C° 0 mm 1 m/S 687 mmHg 51%
    10:00 +15°C° 0 mm 1 m/S 687 mmHg 48%
    11:00 +16°C° 0 mm 1 m/S 687 mmHg 45%
    12:00 +18°C° 0 mm 1 m/S 687 mmHg 43%
    13:00 +18°C° 0 mm 1 m/S 687 mmHg 41%
    14:00 +17°C° 0 mm 2 m/S 687 mmHg 39%
    15:00 +18°C° 0 mm 2 m/S 687 mmHg 37%
    16:00 +17°C° 0 mm 2 m/S 687 mmHg 40%
    17:00 +16°C° 0 mm 2 m/S 687 mmHg 43%
    18:00 +15°C° 0 mm 2 m/S 687 mmHg 47%
    19:00 +14°C° 0 mm 2 m/S 687 mmHg 50%
    20:00 +13°C° 0 mm 1 m/S 688 mmHg 53%
    21:00 +12°C° 0 mm 1 m/S 688 mmHg 56%
    22:00 +12°C° 0 mm 1 m/S 688 mmHg 57%
    23:00 +11°C° 0 mm 1 m/S 688 mmHg 58%

    30 März, Donnerstag

    Zeit Temperatur Niederschläge Wind Luftdruck Luftfeuchtigkeit
    00:00 +11°C° 0 mm 1 m/S 688 mmHg 59%
    01:00 +10°C° 0 mm 1 m/S 688 mmHg 60%
    02:00 +10°C° 0 mm 1 m/S 688 mmHg 62%
    03:00 +9°C° 0 mm 1 m/S 688 mmHg 63%
    04:00 +9°C° 0 mm 1 m/S 688 mmHg 64%
    05:00 +8°C° 0 mm 1 m/S 688 mmHg 65%
    06:00 +8°C° 0 mm 1 m/S 688 mmHg 66%
    07:00 +10°C° 0 mm 1 m/S 689 mmHg 59%
    08:00 +12°C° 0 mm 1 m/S 689 mmHg 52%
    09:00 +14°C° 0 mm 1 m/S 690 mmHg 44%
    10:00 +15°C° 0 mm 1 m/S 689 mmHg 42%
    11:00 +16°C° 0 mm 1 m/S 689 mmHg 39%
    12:00 +18°C° 0 mm 1 m/S 688 mmHg 37%
    13:00 +19°C° 0 mm 1 m/S 688 mmHg 35%
    14:00 +19°C° 0 mm 1 m/S 688 mmHg 33%
    15:00 +20°C° 0 mm 1 m/S 687 mmHg 32%
    16:00 +19°C° 0 mm 1 m/S 687 mmHg 35%
    17:00 +18°C° 0 mm 1 m/S 687 mmHg 38%
    18:00 +16°C° 0 mm 2 m/S 687 mmHg 41%
    19:00 +15°C° 0 mm 1 m/S 687 mmHg 43%
    20:00 +14°C° 0 mm 1 m/S 687 mmHg 46%
    21:00 +13°C° 0 mm 1 m/S 687 mmHg 49%
    22:00 +13°C° 0 mm 1 m/S 686 mmHg 50%
    23:00 +12°C° 0 mm 1 m/S 686 mmHg 51%

    31 März, Freitag

    Zeit Temperatur Niederschläge Wind Luftdruck Luftfeuchtigkeit
    00:00 +12°C° 0 mm 1 m/S 685 mmHg 52%
    01:00 +11°C° 0 mm 1 m/S 685 mmHg 54%
    02:00 +11°C° 0 mm 1 m/S 685 mmHg 55%
    03:00 +10°C° 0 mm 1 m/S 685 mmHg 57%
    04:00 +10°C° 0 mm 1 m/S 684 mmHg 58%
    05:00 +10°C° 0 mm 1 m/S 684 mmHg 58%
    06:00 +10°C° 0 mm 1 m/S 684 mmHg 59%
    07:00 +12°C° 0 mm 1 m/S 684 mmHg 53%
    08:00 +14°C° 0 mm 1 m/S 684 mmHg 47%
    09:00 +16°C° 0 mm 1 m/S 685 mmHg 41%
    10:00 +18°C° 0 mm 1 m/S 684 mmHg 39%
    11:00 +19°C° 0 mm 1 m/S 684 mmHg 37%
    12:00 +20°C° 0 mm 1 m/S 684 mmHg 35%
    13:00 +19°C° 0,2 mm 2 m/S 684 mmHg 37%
    14:00 +19°C° 0,2 mm 2 m/S 684 mmHg 39%
    15:00 +18°C° 0,2 mm 2 m/S 684 mmHg 41%
    16:00 +18°C° 0,2 mm 2 m/S 684 mmHg 46%
    17:00 +17°C° 0,2 mm 2 m/S 684 mmHg 51%
    18:00 +16°C° 0,2 mm 2 m/S 684 mmHg 56%
    19:00 +15°C° 0,2 mm 2 m/S 684 mmHg 60%
    20:00 +14°C° 0,2 mm 2 m/S 684 mmHg 64%
    21:00 +13°C° 0,2 mm 1 m/S 684 mmHg 68%
    22:00 +13°C° 0,1 mm 1 m/S 684 mmHg 70%
    23:00 +12°C° 0,1 mm 1 m/S 684 mmHg 72%
    Mehr zeigen